When you browse on this site, cookies collect data to enhance your experience and personalize the content and advertising you see.
Visit our Privacy Policy to learn more. By continuing to use the site, you agree to this use of cookies and data.
  • In Hungary
  • List of Countries
  • For 7 days
  • Water Temperature
  • Satellite Maps
  • Weather Map
  • News
  • Weather Widgets
  • user-avatar
    Login

    Hourly Weather Jarosław

    Today, 26 March, Tuesday

    Time Temperature Precipitation Wind Pressure Humidity
    00:00 +3°C° 0 mm 3 mps 742 mmHg 78%
    01:00 +2°C° 0 mm 3 mps 743 mmHg 80%
    02:00 +1°C° 0 mm 4 mps 743 mmHg 82%
    03:00 +1°C° 0 mm 4 mps 743 mmHg 84%
    04:00 0°C° 0 mm 4 mps 744 mmHg 86%
    05:00 0°C° 0 mm 4 mps 744 mmHg 88%
    06:00 0°C° 0 mm 4 mps 744 mmHg 87%
    07:00 0°C° 0 mm 4 mps 745 mmHg 85%
    08:00 0°C° 0 mm 4 mps 745 mmHg 84%
    09:00 +1°C° 0 mm 5 mps 746 mmHg 76%
    10:00 +2°C° 0 mm 5 mps 746 mmHg 69%
    11:00 +5°C° 0 mm 5 mps 746 mmHg 62%
    12:00 +5°C° 0 mm 5 mps 746 mmHg 59%
    13:00 +4°C° 0 mm 6 mps 746 mmHg 56%
    14:00 +5°C° 0 mm 6 mps 745 mmHg 53%
    15:00 +5°C° 0.1 mm 6 mps 745 mmHg 55%
    16:00 +5°C° 0.1 mm 7 mps 744 mmHg 56%
    17:00 +4°C° 0.1 mm 8 mps 744 mmHg 58%
    18:00 +4°C° 0.3 mm 8 mps 744 mmHg 60%
    19:00 +2°C° 0.3 mm 8 mps 744 mmHg 63%
    20:00 +2°C° 0.3 mm 9 mps 744 mmHg 66%
    21:00 +1°C° 0.3 mm 8 mps 744 mmHg 65%
    22:00 0°C° 0.3 mm 7 mps 745 mmHg 64%
    23:00 -1°C° 0.3 mm 6 mps 745 mmHg 64%

    Tomorrow, 27 March, Wednesday

    Time Temperature Precipitation Wind Pressure Humidity
    00:00 -2°C° 0 mm 6 mps 746 mmHg 67%
    01:00 -3°C° 0 mm 6 mps 747 mmHg 69%
    02:00 -4°C° 0 mm 6 mps 747 mmHg 72%
    03:00 -4°C° 0 mm 6 mps 748 mmHg 75%
    04:00 -4°C° 0 mm 5 mps 748 mmHg 77%
    05:00 -4°C° 0 mm 5 mps 749 mmHg 79%
    06:00 -2°C° 0 mm 5 mps 749 mmHg 79%
    07:00 -2°C° 0 mm 5 mps 750 mmHg 78%
    08:00 -2°C° 0 mm 5 mps 751 mmHg 77%
    09:00 0°C° 0 mm 5 mps 751 mmHg 71%
    10:00 +1°C° 0 mm 5 mps 751 mmHg 65%
    11:00 +2°C° 0 mm 5 mps 752 mmHg 59%
    12:00 +3°C° 0 mm 5 mps 752 mmHg 55%
    13:00 +5°C° 0 mm 5 mps 752 mmHg 51%
    14:00 +6°C° 0 mm 5 mps 752 mmHg 47%
    15:00 +6°C° 0 mm 4 mps 752 mmHg 46%
    16:00 +6°C° 0 mm 4 mps 751 mmHg 45%
    17:00 +6°C° 0 mm 4 mps 751 mmHg 44%
    18:00 +5°C° 0 mm 3 mps 751 mmHg 49%
    19:00 +4°C° 0 mm 3 mps 752 mmHg 54%
    20:00 +3°C° 0 mm 2 mps 752 mmHg 59%
    21:00 +4°C° 0 mm 2 mps 752 mmHg 62%
    22:00 +4°C° 0 mm 2 mps 752 mmHg 65%
    23:00 +4°C° 0 mm 2 mps 752 mmHg 68%

    Day after tomorrow, 28 March, Thursday

    Time Temperature Precipitation Wind Pressure Humidity
    00:00 +4°C° 0.2 mm 2 mps 752 mmHg 73%
    01:00 +4°C° 0.2 mm 2 mps 752 mmHg 77%
    02:00 +3°C° 0.2 mm 3 mps 752 mmHg 82%
    03:00 +3°C° 0.1 mm 3 mps 752 mmHg 86%
    04:00 +3°C° 0.1 mm 3 mps 752 mmHg 89%
    05:00 +3°C° 0.1 mm 3 mps 752 mmHg 92%
    06:00 +3°C° 0.6 mm 3 mps 752 mmHg 92%
    07:00 +4°C° 0.6 mm 3 mps 752 mmHg 92%
    08:00 +4°C° 0.6 mm 4 mps 752 mmHg 92%
    09:00 +5°C° 0.1 mm 4 mps 753 mmHg 88%
    10:00 +6°C° 0.1 mm 4 mps 753 mmHg 84%
    11:00 +7°C° 0.1 mm 4 mps 753 mmHg 80%
    12:00 +8°C° 0.2 mm 3 mps 753 mmHg 77%
    13:00 +9°C° 0.2 mm 3 mps 753 mmHg 74%
    14:00 +9°C° 0.2 mm 2 mps 753 mmHg 71%
    15:00 +9°C° 0.1 mm 2 mps 754 mmHg 69%
    16:00 +9°C° 0.1 mm 2 mps 754 mmHg 67%
    17:00 +10°C° 0.1 mm 2 mps 754 mmHg 65%
    18:00 +10°C° 0 mm 1 mps 754 mmHg 70%
    19:00 +9°C° 0 mm 1 mps 754 mmHg 75%
    20:00 +8°C° 0 mm 1 mps 755 mmHg 79%
    21:00 +7°C° 0 mm 1 mps 755 mmHg 81%
    22:00 +7°C° 0 mm 1 mps 755 mmHg 84%
    23:00 +6°C° 0 mm 1 mps 756 mmHg 86%

    29 March, Friday

    Time Temperature Precipitation Wind Pressure Humidity
    00:00 +6°C° 0 mm 1 mps 756 mmHg 88%
    01:00 +5°C° 0 mm 1 mps 756 mmHg 89%
    02:00 +5°C° 0 mm 1 mps 756 mmHg 91%
    03:00 +4°C° 0 mm 2 mps 756 mmHg 92%
    04:00 +4°C° 0 mm 2 mps 756 mmHg 93%
    05:00 +3°C° 0 mm 2 mps 756 mmHg 94%
    06:00 +3°C° 0 mm 3 mps 756 mmHg 92%
    07:00 +3°C° 0 mm 3 mps 756 mmHg 90%
    08:00 +4°C° 0 mm 4 mps 756 mmHg 88%
    09:00 +6°C° 0 mm 4 mps 756 mmHg 81%
    10:00 +7°C° 0 mm 4 mps 756 mmHg 74%
    11:00 +10°C° 0 mm 4 mps 755 mmHg 67%
    12:00 +10°C° 0 mm 5 mps 755 mmHg 67%
    13:00 +12°C° 0 mm 5 mps 755 mmHg 67%
    14:00 +12°C° 0 mm 5 mps 754 mmHg 67%
    15:00 +12°C° 0 mm 5 mps 754 mmHg 71%
    16:00 +10°C° 0 mm 5 mps 754 mmHg 74%
    17:00 +9°C° 0 mm 5 mps 754 mmHg 78%
    18:00 +10°C° 0 mm 4 mps 754 mmHg 80%
    19:00 +8°C° 0 mm 4 mps 754 mmHg 83%
    20:00 +9°C° 0 mm 3 mps 754 mmHg 85%
    21:00 +8°C° 0 mm 3 mps 754 mmHg 87%
    22:00 +8°C° 0 mm 3 mps 754 mmHg 90%
    23:00 +7°C° 0 mm 2 mps 754 mmHg 92%

    30 March, Saturday

    Time Temperature Precipitation Wind Pressure Humidity
    00:00 +7°C° 0 mm 2 mps 754 mmHg 93%
    01:00 +7°C° 0 mm 2 mps 754 mmHg 93%
    02:00 +7°C° 0 mm 2 mps 754 mmHg 94%
    03:00 +6°C° 0 mm 2 mps 753 mmHg 95%
    04:00 +6°C° 0 mm 2 mps 753 mmHg 95%
    05:00 +5°C° 0 mm 2 mps 753 mmHg 96%
    06:00 +5°C° 0 mm 3 mps 753 mmHg 94%
    07:00 +7°C° 0 mm 3 mps 753 mmHg 91%
    08:00 +8°C° 0 mm 3 mps 753 mmHg 89%
    09:00 +10°C° 0 mm 3 mps 752 mmHg 82%
    10:00 +12°C° 0 mm 3 mps 752 mmHg 75%
    11:00 +13°C° 0 mm 4 mps 752 mmHg 67%
    12:00 +14°C° 0 mm 4 mps 751 mmHg 64%
    13:00 +15°C° 0 mm 4 mps 751 mmHg 60%
    14:00 +17°C° 0 mm 4 mps 750 mmHg 56%
    15:00 +17°C° 0 mm 4 mps 750 mmHg 56%
    16:00 +17°C° 0 mm 4 mps 749 mmHg 56%
    17:00 +17°C° 0 mm 3 mps 749 mmHg 56%
    18:00 +14°C° 0 mm 3 mps 748 mmHg 61%
    19:00 +14°C° 0 mm 2 mps 748 mmHg 67%
    20:00 +12°C° 0 mm 2 mps 748 mmHg 72%
    21:00 +12°C° 0 mm 2 mps 748 mmHg 74%
    22:00 +10°C° 0 mm 2 mps 747 mmHg 76%
    23:00 +10°C° 0 mm 2 mps 747 mmHg 78%

    31 March, Sunday

    Time Temperature Precipitation Wind Pressure Humidity
    00:00 +9°C° 0 mm 2 mps 747 mmHg 79%
    01:00 +9°C° 0 mm 2 mps 746 mmHg 80%
    02:00 +8°C° 0 mm 2 mps 746 mmHg 82%
    03:00 +8°C° 0 mm 2 mps 745 mmHg 82%
    04:00 +8°C° 0 mm 2 mps 745 mmHg 83%
    05:00 +8°C° 0 mm 2 mps 745 mmHg 84%
    06:00 +8°C° 0 mm 3 mps 744 mmHg 81%
    07:00 +9°C° 0 mm 3 mps 744 mmHg 78%
    08:00 +10°C° 0 mm 3 mps 744 mmHg 75%
    09:00 +11°C° 0 mm 4 mps 744 mmHg 72%
    10:00 +12°C° 0 mm 4 mps 744 mmHg 70%
    11:00 +13°C° 0 mm 5 mps 745 mmHg 67%
    12:00 +10°C° 0.6 mm 6 mps 745 mmHg 71%
    13:00 +8°C° 0.6 mm 6 mps 745 mmHg 74%
    14:00 +5°C° 0.6 mm 7 mps 746 mmHg 77%
    15:00 +5°C° 0.1 mm 7 mps 746 mmHg 70%
    16:00 +5°C° 0.1 mm 7 mps 747 mmHg 63%
    17:00 +5°C° 0.1 mm 6 mps 747 mmHg 55%
    18:00 +5°C° 0 mm 5 mps 748 mmHg 58%
    19:00 +3°C° 0 mm 5 mps 749 mmHg 61%
    20:00 +3°C° 0 mm 4 mps 749 mmHg 64%
    21:00 +3°C° 0 mm 4 mps 750 mmHg 63%
    22:00 +1°C° 0 mm 4 mps 750 mmHg 62%
    23:00 0°C° 0 mm 4 mps 751 mmHg 61%
    Show more